User: anonymous   Login
Location: Houston
(29.7630°N, 95.3630°W)
Time: 11:40:53
(UTC-05:00)
Language:

Saudisat 1A - Orbit

View from above orbital plane
View from above orbital plane
View from above satellite
View from above satellite

Ground track
Ground track

The orbit data is extracted from the following two-line orbital elements,

1 26546U 00057B   14303.36707549  .00003732  00000-0  41682-3 0  4159
2 26546 064.5561 099.6314 0007773 313.1194 046.9264 14.88422244763512
Epoch (UTC): 30 October 2014 08:48:35
Eccentricity: 0.0007773
inclination: 64.5561°
perigee height: 597 km
apogee height: 608 km
right ascension of ascending node: 99.6314°
argument of perigee: 313.1194°
revolutions per day: 14.88422244
mean anomaly at epoch: 46.9264°
orbit number at epoch: 76351

The dashed part of the orbit path shows where the satellite is in the earth's shadow,  

DLR